Weather History for Blacksburg, VA

Change the Weather History Date:

Friday, October 7, 2011

  Actual Average Record
Temperature  
Mean Temperature 58 °F 55 °F  
Max Temperature 73 °F 68 °F 87 °F (2007)
Min Temperature 43 °F 42 °F 25 °F (1988)
Degree Days  
Heating Degree Days 7 10  
Month to date heating degree days 92 65  
Since 1 July heating degree days 170 196  
Cooling Degree Days 0 0  
Month to date cooling degree days 0 1  
Year to date cooling degree days 870 570  
Growing Degree Days 10 (Base 50)    
Moisture  
Dew Point 54 °F    
Average Humidity 79    
Maximum Humidity 100    
Minimum Humidity 57    
Precipitation  
Precipitation 0.00 in 0.09 in 1.88 in (2013)
Month to date precipitation 0.04 0.62  
Year to date precipitation 33.46 32.91  
Snow  
Snow 0.00 in - - ()
Month to date snowfall 0.0  
Since 1 July snowfall 0.0  
Since 1 September snowfall 0.0  
Snow Depth 0.00 in    
Sea Level Pressure  
Sea Level Pressure 30.46 in    
Wind  
Wind Speed 2 mph (East)    
Max Wind Speed 9 mph    
Max Gust Speed -    
Visibility 8 miles    
Events Fog    
T = Trace of Precipitation, MM = Missing Value Source: NWS Daily Summary

Daily Weather History Graph

Daily Weather History Graph

Search for Another Location

Airport:

Trip Planner

Search our weather history database for the weather conditions in past years. The results will help you decide how hot, cold, wet, or windy it might be!

Date:

Astronomy

Oct. 07, 2011 Rise Set
Actual Time 7:22 AM EDT 6:56 PM EDT
Civil Twilight 6:55 AM EDT 7:22 PM EDT
Nautical Twilight 6:25 AM EDT 7:52 PM EDT
Astronomical Twilight 5:55 AM EDT 8:22 PM EDT
Moon 4:34 PM EDT (10/7) 3:14 AM EDT (10/7)
Length of Visible Light 12h 26m
Length of Day
11h 34m
Waxing Gibbous, 83% of the Moon is Illuminated
Oct 7
Waxing Gibbous
Oct 11
Full
Oct 19
Last Quarter
Oct 26
New
Nov 2
First Quarter

Hourly Weather History & Observations

Time (EDT) Temp. Dew Point Humidity Pressure Visibility Wind Dir Wind Speed Gust Speed Precip Events Conditions
12:15 AM 50.0 °F 50.0 °F 100% 30.42 in 7.0 mi Calm Calm - N/A   Clear
12:35 AM 50.0 °F 50.0 °F 100% 30.42 in 7.0 mi Calm Calm - N/A   Clear
12:55 AM 50.0 °F 50.0 °F 100% 30.42 in 10.0 mi Calm Calm - N/A   Clear
1:15 AM 50.0 °F 50.0 °F 100% 30.42 in 10.0 mi Calm Calm - N/A   Clear
1:35 AM 50.0 °F 50.0 °F 100% 30.42 in 10.0 mi Calm Calm - N/A   Clear
1:55 AM 48.2 °F 48.2 °F 100% 30.42 in 10.0 mi Calm Calm - N/A   Clear
2:35 AM 48.2 °F 48.2 °F 100% 30.42 in 5.0 mi Calm Calm - N/A   Clear
2:55 AM 48.2 °F 48.2 °F 100% 30.42 in 0.8 mi Calm Calm - N/A   Mist
3:15 AM 48.2 °F 48.2 °F 100% 30.42 in 5.0 mi Calm Calm - N/A   Clear
8:15 AM 46.4 °F 46.4 °F 100% 30.46 in 0.2 mi Calm Calm - N/A Fog Fog
8:35 AM 46.4 °F 46.4 °F 100% 30.46 in 0.2 mi Calm Calm - N/A Fog Fog
8:55 AM 48.2 °F 48.2 °F 100% 30.47 in 0.2 mi Calm Calm - N/A Fog Fog
9:15 AM 48.2 °F 48.2 °F 100% 30.47 in 0.2 mi Calm Calm - N/A Fog Fog
9:35 AM 51.8 °F 51.8 °F 100% 30.47 in 0.8 mi Calm Calm - N/A   Overcast
9:55 AM 53.6 °F 53.6 °F 100% 30.47 in 5.0 mi Calm Calm - N/A   Scattered Clouds
10:35 AM 57.2 °F 57.2 °F 100% 30.48 in 7.0 mi Calm Calm - N/A   Clear
10:55 AM 59.0 °F 59.0 °F 100% 30.48 in 10.0 mi WSW 3.5 mph - N/A   Clear
11:15 AM 62.6 °F 57.2 °F 82% 30.48 in 10.0 mi Calm Calm - N/A   Clear
11:35 AM 66.2 °F 59.0 °F 78% 30.48 in 10.0 mi Calm Calm - N/A   Clear
11:55 AM 66.2 °F 57.2 °F 73% 30.48 in 10.0 mi Calm Calm - N/A   Clear
12:55 PM 69.8 °F 57.2 °F 64% 30.47 in 10.0 mi Calm Calm - N/A   Clear
1:15 PM 71.6 °F 57.2 °F 60% 30.47 in 10.0 mi East 6.9 mph - N/A   Clear
1:35 PM 71.6 °F 57.2 °F 60% 30.46 in 10.0 mi SSE 8.1 mph - N/A   Clear
1:55 PM 71.6 °F 57.2 °F 60% 30.46 in 10.0 mi East 5.8 mph - N/A   Clear
2:15 PM 73.4 °F 57.2 °F 57% 30.45 in 10.0 mi ENE 6.9 mph - N/A   Clear
2:35 PM 73.4 °F 57.2 °F 57% 30.45 in 10.0 mi East 5.8 mph - N/A   Clear
2:55 PM 73.4 °F 57.2 °F 57% 30.45 in 10.0 mi East 3.5 mph - N/A   Clear
3:15 PM 73.4 °F 57.2 °F 57% 30.44 in 10.0 mi ENE 6.9 mph - N/A   Clear
3:35 PM 73.4 °F 57.2 °F 57% 30.44 in 10.0 mi ESE 6.9 mph - N/A   Clear
4:15 PM 71.6 °F 57.2 °F 60% 30.44 in 10.0 mi East 5.8 mph - N/A   Clear
5:15 PM 71.6 °F 57.2 °F 60% 30.45 in 10.0 mi East 8.1 mph - N/A   Clear
5:35 PM 69.8 °F 57.2 °F 64% 30.45 in 10.0 mi East 6.9 mph - N/A   Clear
5:55 PM 69.8 °F 57.2 °F 64% 30.45 in 10.0 mi East 9.2 mph - N/A   Clear
6:15 PM 68.0 °F 57.2 °F 68% 30.45 in 10.0 mi East 6.9 mph - N/A   Clear
6:35 PM 66.2 °F 57.2 °F 73% 30.46 in 10.0 mi East 5.8 mph - N/A   Clear
6:55 PM 64.4 °F 57.2 °F 77% 30.46 in 10.0 mi ESE 5.8 mph - N/A   Clear
7:15 PM 64.4 °F 55.4 °F 73% 30.46 in 10.0 mi ESE 4.6 mph - N/A   Clear
7:35 PM 62.6 °F 55.4 °F 77% 30.47 in 10.0 mi ESE 4.6 mph - N/A   Clear
7:55 PM 62.6 °F 55.4 °F 77% 30.47 in 10.0 mi ESE 4.6 mph - N/A   Clear
8:15 PM 60.8 °F 55.4 °F 82% 30.48 in 10.0 mi East 4.6 mph - N/A   Clear
8:35 PM 59.0 °F 55.4 °F 88% 30.48 in 10.0 mi East 5.8 mph - N/A   Clear
8:55 PM 59.0 °F 55.4 °F 88% 30.49 in 10.0 mi ESE 3.5 mph - N/A   Clear
9:15 PM 57.2 °F 55.4 °F 94% 30.49 in 10.0 mi Calm Calm - N/A   Clear
9:35 PM 55.4 °F 55.4 °F 100% 30.50 in 10.0 mi Calm Calm - N/A   Clear
9:55 PM 55.4 °F 55.4 °F 100% 30.51 in 10.0 mi Calm Calm - N/A   Clear
10:15 PM 53.6 °F 53.6 °F 100% 30.51 in 10.0 mi Calm Calm - N/A   Clear
10:35 PM 53.6 °F 53.6 °F 100% 30.51 in 10.0 mi Calm Calm - N/A   Clear
11:15 PM 53.6 °F 53.6 °F 100% 30.52 in 10.0 mi Calm Calm - N/A   Clear
11:35 PM 53.6 °F 53.6 °F 100% 30.52 in 10.0 mi Calm Calm - N/A   Clear
11:55 PM 53.6 °F 53.6 °F 100% 30.52 in 10.0 mi Calm Calm - N/A   Clear